Location: Kermapucano
(48.0667°N, 3.3000°W)
Time: 20:28:14
(UTC+00:00)

USA 308 - Pass Details

Date: 29 November 2020
Orbit: 561 x 585 km, 54.0° (Epoch: 25 January)

Event Time Altitude Azimuth Distance (km) Brightness Sun altitude
Exits shadow 06:48:45 11° 302° (WNW) 1,876 4.9 -8.4°
Maximum altitude 06:52:58 57° 21° (NNE) 696 3.3 -7.8°
Drops below altitude 10° 06:57:15 10° 101° (E) 1,907 7.1 -7.1°
Sets 06:59:33 0° 105° (ESE) 2,804 8.6 -6.8°
